Вернуться в каталог

PSLV R/B

АктивенSSO
NORAD 36800·ROCKET BODY·🇮🇳 India

Запущен Jul 12, 2010 с Satish Dhawan Space Centre

Loading…

Ближайшие Пролёты (ближайшие 24 часа)

TLE

СвежийSource: Space-Track

Эпоха: Sep 14, 2026, 13:41 UTC

1 36800U 10035F   26257.57068206  .00004346  00000-0  24778-3 0  9990
2 36800  97.9849 192.5206 0010701 284.8338  75.1706 15.13316448882599

Отслеживайте PSLV R/B в реальном времени с AllMySat

Download on the App Store